• Em Portugal
  • Lista de países
  • Para 7 dias
  • Temperatura da água
  • Mapas de satélite
  • Mapa do tempo
  • Widgets de tempo
  • user-avatar
    Iniciar Sessão

    Previsão horária em Lezhe

    Hoje, 15 Dezembro, Sexta-feira

    Tempo Temperatura Precipitação Vento Pressão Humidade
    00:00 +8°C° 0,3 mm 4 m/s 736 mmHg 89%
    01:00 +8°C° 0 mm 5 m/s 735 mmHg 89%
    02:00 +8°C° 0,1 mm 5 m/s 735 mmHg 88%
    03:00 +8°C° 0,1 mm 5 m/s 735 mmHg 87%
    04:00 +8°C° 0,1 mm 4 m/s 735 mmHg 87%
    05:00 +8°C° 0,1 mm 4 m/s 735 mmHg 86%
    06:00 +8°C° 0,1 mm 5 m/s 735 mmHg 86%
    07:00 +8°C° 0 mm 4 m/s 734 mmHg 87%
    08:00 +10°C° 0,4 mm 4 m/s 734 mmHg 87%
    09:00 +9°C° 0,4 mm 5 m/s 733 mmHg 87%
    10:00 +9°C° 0,4 mm 5 m/s 733 mmHg 87%
    11:00 +9°C° 1,1 mm 6 m/s 733 mmHg 88%
    12:00 +9°C° 1,1 mm 6 m/s 732 mmHg 90%
    13:00 +10°C° 0 mm 7 m/s 732 mmHg 92%
    14:00 +10°C° 0,8 mm 7 m/s 732 mmHg 92%
    15:00 +10°C° 0,8 mm 7 m/s 731 mmHg 91%
    16:00 +10°C° 0,8 mm 7 m/s 731 mmHg 91%
    17:00 +10°C° 0,8 mm 7 m/s 731 mmHg 91%
    18:00 +10°C° 0,8 mm 7 m/s 731 mmHg 91%
    19:00 +10°C° 0,8 mm 7 m/s 730 mmHg 91%
    20:00 +10°C° 1,2 mm 8 m/s 730 mmHg 91%
    21:00 +10°C° 1,2 mm 8 m/s 730 mmHg 91%
    22:00 +10°C° 1,2 mm 8 m/s 730 mmHg 92%
    23:00 +10°C° 1,5 mm 8 m/s 729 mmHg 92%

    Amanhã, 16 Dezembro, Sábado

    Tempo Temperatura Precipitação Vento Pressão Humidade
    00:00 +10°C° 1,5 mm 9 m/s 729 mmHg 92%
    01:00 +10°C° 1,5 mm 9 m/s 729 mmHg 92%
    02:00 +10°C° 1,4 mm 9 m/s 728 mmHg 92%
    03:00 +10°C° 1,4 mm 9 m/s 728 mmHg 91%
    04:00 +10°C° 1,4 mm 9 m/s 728 mmHg 90%
    05:00 +10°C° 2,4 mm 9 m/s 728 mmHg 91%
    06:00 +10°C° 2,4 mm 9 m/s 728 mmHg 92%
    07:00 +10°C° 2,4 mm 8 m/s 728 mmHg 92%
    08:00 +10°C° 3,1 mm 8 m/s 729 mmHg 92%
    09:00 +10°C° 3,1 mm 7 m/s 729 mmHg 91%
    10:00 +10°C° 3,1 mm 7 m/s 730 mmHg 91%
    11:00 +10°C° 3,2 mm 6 m/s 729 mmHg 91%
    12:00 +10°C° 3,2 mm 5 m/s 729 mmHg 91%
    13:00 +11°C° 3,2 mm 4 m/s 729 mmHg 92%
    14:00 +11°C° 2,5 mm 3 m/s 730 mmHg 92%
    15:00 +10°C° 2,5 mm 2 m/s 730 mmHg 92%
    16:00 +10°C° 2,5 mm 2 m/s 730 mmHg 92%
    17:00 +9°C° 1,1 mm 2 m/s 730 mmHg 92%
    18:00 +9°C° 1,1 mm 2 m/s 731 mmHg 92%
    19:00 +9°C° 1,1 mm 2 m/s 731 mmHg 92%
    20:00 +9°C° 0,5 mm 2 m/s 731 mmHg 92%
    21:00 +8°C° 0,5 mm 2 m/s 731 mmHg 91%
    22:00 +8°C° 0,5 mm 2 m/s 732 mmHg 90%
    23:00 +8°C° 0,6 mm 2 m/s 732 mmHg 91%

    Depois de amanhã, 17 Dezembro, Domingo

    Tempo Temperatura Precipitação Vento Pressão Humidade
    00:00 +8°C° 0,6 mm 2 m/s 732 mmHg 92%
    01:00 +8°C° 0,6 mm 2 m/s 732 mmHg 93%
    02:00 +8°C° 0,5 mm 2 m/s 732 mmHg 93%
    03:00 +7°C° 0,5 mm 2 m/s 732 mmHg 92%
    04:00 +7°C° 0,5 mm 2 m/s 732 mmHg 92%
    05:00 +7°C° 0,2 mm 2 m/s 733 mmHg 91%
    06:00 +6°C° 0,2 mm 2 m/s 733 mmHg 91%
    07:00 +6°C° 0,2 mm 2 m/s 733 mmHg 90%
    08:00 +7°C° 0,5 mm 2 m/s 734 mmHg 86%
    09:00 +7°C° 0,5 mm 2 m/s 734 mmHg 82%
    10:00 +8°C° 0,5 mm 3 m/s 734 mmHg 78%
    11:00 +8°C° 0,6 mm 3 m/s 734 mmHg 78%
    12:00 +8°C° 0,6 mm 3 m/s 734 mmHg 78%
    13:00 +8°C° 0,6 mm 3 m/s 734 mmHg 78%
    14:00 +7°C° 0,7 mm 3 m/s 735 mmHg 81%
    15:00 +7°C° 0,7 mm 3 m/s 735 mmHg 84%
    16:00 +5°C° 0,7 mm 3 m/s 735 mmHg 87%
    17:00 +5°C° 0,8 mm 4 m/s 736 mmHg 88%
    18:00 +5°C° 0,8 mm 4 m/s 737 mmHg 88%
    19:00 +3°C° 0,8 mm 5 m/s 737 mmHg 88%
    20:00 +3°C° 0,7 mm 5 m/s 738 mmHg 87%
    21:00 +2°C° 0,7 mm 5 m/s 738 mmHg 86%
    22:00 +2°C° 0,7 mm 6 m/s 739 mmHg 85%
    23:00 +2°C° 1 mm 6 m/s 739 mmHg 85%

    18 Dezembro, Segunda-feira

    Tempo Temperatura Precipitação Vento Pressão Humidade
    00:00 +1°C° 1 mm 6 m/s 739 mmHg 85%
    01:00 +1°C° 1 mm 6 m/s 740 mmHg 85%
    02:00 +1°C° 1 mm 5 m/s 740 mmHg 86%
    03:00 0°C° 1 mm 5 m/s 740 mmHg 88%
    04:00 0°C° 1 mm 5 m/s 740 mmHg 89%
    05:00 0°C° 0,3 mm 4 m/s 741 mmHg 89%
    06:00 0°C° 0,3 mm 4 m/s 741 mmHg 88%
    07:00 0°C° 0,3 mm 4 m/s 742 mmHg 87%
    08:00 0°C° 0,2 mm 4 m/s 742 mmHg 86%
    09:00 0°C° 0,2 mm 4 m/s 742 mmHg 84%
    10:00 0°C° 0,2 mm 4 m/s 742 mmHg 82%
    11:00 +2°C° 0,1 mm 3 m/s 742 mmHg 80%
    12:00 +2°C° 0,1 mm 3 m/s 742 mmHg 78%
    13:00 +3°C° 0,1 mm 3 m/s 742 mmHg 76%
    14:00 +2°C° 0 mm 3 m/s 742 mmHg 77%
    15:00 +2°C° 0 mm 2 m/s 742 mmHg 79%
    16:00 +1°C° 0 mm 2 m/s 742 mmHg 80%
    17:00 -1°C° 0 mm 2 m/s 742 mmHg 80%
    18:00 -1°C° 0 mm 2 m/s 743 mmHg 81%
    19:00 -2°C° 0 mm 2 m/s 743 mmHg 81%
    20:00 -3°C° 0 mm 2 m/s 743 mmHg 80%
    21:00 -4°C° 0 mm 3 m/s 744 mmHg 79%
    22:00 -4°C° 0 mm 3 m/s 744 mmHg 78%
    23:00 -3°C° 0 mm 2 m/s 744 mmHg 77%

    19 Dezembro, Terça-feira

    Tempo Temperatura Precipitação Vento Pressão Humidade
    00:00 -3°C° 0 mm 2 m/s 745 mmHg 76%
    01:00 -3°C° 0 mm 2 m/s 745 mmHg 75%
    02:00 -3°C° 0 mm 2 m/s 745 mmHg 74%
    03:00 -3°C° 0 mm 2 m/s 745 mmHg 73%
    04:00 -3°C° 0 mm 2 m/s 745 mmHg 73%
    05:00 -3°C° 0 mm 2 m/s 745 mmHg 72%
    06:00 -3°C° 0 mm 2 m/s 746 mmHg 72%
    07:00 -4°C° 0 mm 3 m/s 746 mmHg 71%
    08:00 -2°C° 0 mm 3 m/s 747 mmHg 70%
    09:00 0°C° 0 mm 3 m/s 747 mmHg 69%
    10:00 +2°C° 0 mm 3 m/s 747 mmHg 67%
    11:00 +2°C° 0 mm 3 m/s 747 mmHg 67%
    12:00 +3°C° 0 mm 3 m/s 747 mmHg 67%
    13:00 +4°C° 0 mm 3 m/s 746 mmHg 67%
    14:00 +3°C° 0 mm 3 m/s 747 mmHg 70%
    15:00 +2°C° 0 mm 3 m/s 747 mmHg 73%
    16:00 +1°C° 0 mm 3 m/s 747 mmHg 76%
    17:00 0°C° 0 mm 3 m/s 747 mmHg 77%
    18:00 -1°C° 0 mm 3 m/s 748 mmHg 78%
    19:00 -2°C° 0 mm 4 m/s 748 mmHg 79%
    20:00 -3°C° 0 mm 4 m/s 748 mmHg 79%
    21:00 -3°C° 0 mm 4 m/s 748 mmHg 79%
    22:00 -3°C° 0 mm 4 m/s 749 mmHg 79%
    23:00 -3°C° 0 mm 4 m/s 749 mmHg 79%

    20 Dezembro, Quarta-feira

    Tempo Temperatura Precipitação Vento Pressão Humidade
    00:00 -3°C° 0 mm 4 m/s 749 mmHg 79%
    01:00 -4°C° 0 mm 4 m/s 749 mmHg 79%
    02:00 -4°C° 0 mm 4 m/s 749 mmHg 79%
    03:00 -4°C° 0 mm 4 m/s 749 mmHg 79%
    04:00 -4°C° 0 mm 4 m/s 749 mmHg 79%
    05:00 -4°C° 0 mm 4 m/s 749 mmHg 78%
    06:00 -4°C° 0 mm 4 m/s 749 mmHg 78%
    07:00 -5°C° 0 mm 4 m/s 749 mmHg 78%
    08:00 -3°C° 0 mm 4 m/s 750 mmHg 75%
    09:00 -2°C° 0 mm 4 m/s 750 mmHg 72%
    10:00 -1°C° 0 mm 4 m/s 750 mmHg 70%
    11:00 0°C° 0 mm 4 m/s 750 mmHg 68%
    12:00 +1°C° 0 mm 4 m/s 750 mmHg 67%
    13:00 +1°C° 0 mm 4 m/s 749 mmHg 66%
    14:00 0°C° 0 mm 4 m/s 749 mmHg 69%
    15:00 -1°C° 0 mm 4 m/s 750 mmHg 72%
    16:00 -2°C° 0 mm 4 m/s 750 mmHg 75%
    17:00 -3°C° 0 mm 4 m/s 750 mmHg 75%
    18:00 -3°C° 0 mm 4 m/s 750 mmHg 75%
    19:00 -4°C° 0 mm 4 m/s 751 mmHg 76%
    20:00 -4°C° 0 mm 4 m/s 751 mmHg 75%
    21:00 -4°C° 0 mm 4 m/s 751 mmHg 74%
    22:00 -5°C° 0 mm 3 m/s 751 mmHg 73%
    23:00 -5°C° 0 mm 3 m/s 751 mmHg 71%
    Mostrar mais